Simultaneous Nadir Overpasses (SNOs) Predictions

Prediction of SNOs between LANDSAT-8 and NOAA-19 Satellite Orbit:

Table of predicted SNOs for the next 14.0 days since TLE Epoch: 5/3/2025
Index Date (LANDSAT-8) Time (LANDSAT-8) Lat,Lon (LANDSAT-8) SZA (LANDSAT-8 ) Date (NOAA-19) Time (NOAA-19) Lat,Lon (NOAA-19) SZA (NOAA-19 ) Distance(km) Time Diff (sec)
1 05/04/2025 01:08:46 78.90,-177.45 63.60 05/04/2025 01:08:54 78.89,-177.53 63.59 1.93 8
2 05/06/2025 07:32:01 78.67, 85.50 62.66 05/06/2025 07:31:08 78.68, 85.49 62.65 0.37 53
3 05/06/2025 08:21:21 -78.97,-105.21 116.96 05/06/2025 08:21:58 -78.97,-105.18 116.94 0.84 37
4 05/08/2025 14:44:35 -78.77, 157.85 117.84 05/08/2025 14:44:12 -78.77, 157.94 117.84 2.10 23
5 05/08/2025 15:33:55 79.01, -33.13 62.47 05/08/2025 15:35:03 79.00, -33.18 62.49 1.22 68
6 05/10/2025 21:57:09 78.78,-130.20 61.58 05/10/2025 21:57:17 78.77,-130.29 61.57 2.13 8
7 05/13/2025 04:20:22 78.58, 132.89 60.74 05/13/2025 04:19:30 78.57, 132.85 60.72 1.18 52
8 05/13/2025 05:09:43 -78.84, -58.05 118.93 05/13/2025 05:10:23 -78.83, -58.12 118.92 1.85 40
9 05/15/2025 11:32:56 -78.61,-155.06 119.76 05/15/2025 11:32:37 -78.61,-155.13 119.78 1.71 19



Historial Predications of SNOs between LANDSAT-8 and NOAA-19
